Weather History for Holdrege, NE

Change the Weather History Date:

Thursday, March 28, 2013

  Actual Average Record
Temperature  
Mean Temperature 46 °F -  
Max Temperature 64 °F 58 °F 111 °F (1999)
Min Temperature 28 °F 31 °F 9 °F (1975)
Degree Days  
Heating Degree Days 20    
Moisture  
Dew Point 28 °F    
Average Humidity 56    
Maximum Humidity 91    
Minimum Humidity 22    
Precipitation  
Precipitation 0.00 in - - ()
Sea Level Pressure  
Sea Level Pressure 30.14 in    
Wind  
Wind Speed 7 mph (SSE)    
Max Wind Speed 14 mph    
Max Gust Speed 22 mph    
Visibility 10 miles    
Events      
Averages and records for this station are not official NWS values.
T = Trace of Precipitation, MM = Missing Value Source: NWS Daily Summary

Daily Weather History Graph

Daily Weather History Graph

Search for Another Location

Airport:

Trip Planner

Search our weather history database for the weather conditions in past years. The results will help you decide how hot, cold, wet, or windy it might be!

Date:

Astronomy

Mar. 28, 2013 Rise Set
Actual Time 7:27 AM CDT 7:58 PM CDT
Civil Twilight 6:59 AM CDT 8:25 PM CDT
Nautical Twilight 6:27 AM CDT 8:57 PM CDT
Astronomical Twilight 5:54 AM CDT 9:31 PM CDT
Moon 9:52 PM CDT (3/28) 7:55 AM CDT (3/28)
Length of Visible Light 13h 25m
Length of Day
12h 30m
Full, 98% of the Moon is Illuminated
Mar 28
Full
Apr 2
Last Quarter
Apr 10
New
Apr 18
First Quarter
Apr 25
Full

Hourly Weather History & Observations

Time (CDT) Temp. Windchill Dew Point Humidity Pressure Visibility Wind Dir Wind Speed Gust Speed Precip Events Conditions
12:15 AM 32.5 °F 25.5 °F 25.0 °F 74% 30.16 in 10.0 mi ESE 8.1 mph - N/A   Clear
12:35 AM 33.3 °F 27.1 °F 25.9 °F 74% 30.17 in 10.0 mi SE 6.9 mph - N/A   Clear
12:55 AM 32.0 °F 25.6 °F 25.5 °F 77% 30.17 in 10.0 mi SE 6.9 mph - N/A   Clear
1:15 AM 33.3 °F 25.7 °F 25.7 °F 74% 30.17 in 10.0 mi SE 9.2 mph - N/A   Clear
1:35 AM 33.8 °F 29.6 °F 26.2 °F 74% 30.17 in 10.0 mi SSE 4.6 mph - N/A   Clear
1:55 AM 33.8 °F 29.6 °F 26.6 °F 75% 30.17 in 10.0 mi South 4.6 mph - N/A   Clear
2:15 AM 34.2 °F 28.2 °F 27.1 °F 75% 30.18 in 10.0 mi SSE 6.9 mph - N/A   Clear
2:35 AM 32.2 °F 25.8 °F 27.3 °F 82% 30.17 in 10.0 mi SSE 6.9 mph - N/A   Clear
2:55 AM 32.0 °F 25.6 °F 26.4 °F 80% 30.17 in 10.0 mi SSE 6.9 mph - N/A   Clear
3:15 AM 32.2 °F 27.7 °F 27.3 °F 82% 30.17 in 10.0 mi SSE 4.6 mph - N/A   Clear
3:35 AM 32.0 °F 26.4 °F 27.7 °F 84% 30.16 in 10.0 mi SSE 5.8 mph - N/A   Clear
3:55 AM 32.0 °F 27.5 °F 27.9 °F 85% 30.16 in 10.0 mi South 4.6 mph - N/A   Clear
4:35 AM 32.4 °F 26.9 °F 28.4 °F 85% 30.16 in 10.0 mi South 5.8 mph - N/A   Clear
4:55 AM 32.9 °F 27.5 °F 28.9 °F 85% 30.16 in 10.0 mi South 5.8 mph - N/A   Clear
5:15 AM 30.7 °F 24.9 °F 27.3 °F 87% 30.15 in 10.0 mi South 5.8 mph - N/A   Clear
5:35 AM 30.9 °F 26.2 °F 27.7 °F 88% 30.15 in 10.0 mi South 4.6 mph - N/A   Clear
5:55 AM 31.3 °F 25.6 °F 28.0 °F 88% 30.14 in 10.0 mi South 5.8 mph - N/A   Clear
6:15 AM 31.1 °F 25.4 °F 27.7 °F 87% 30.13 in 10.0 mi South 5.8 mph - N/A   Clear
6:35 AM 30.7 °F 27.3 °F 27.3 °F 87% 30.13 in 10.0 mi South 3.5 mph - N/A   Clear
6:55 AM 29.8 °F 26.3 °F 27.1 °F 90% 30.13 in 10.0 mi SSW 3.5 mph - N/A   Clear
7:15 AM 30.6 °F 25.8 °F 27.9 °F 90% 30.14 in 10.0 mi SSW 4.6 mph - N/A   Clear
7:35 AM 30.9 °F - 28.4 °F 90% 30.15 in 7.0 mi Calm Calm - N/A   Scattered Clouds
7:55 AM 28.9 °F - 26.1 °F 89% 30.14 in 5.0 mi Calm Calm - N/A   Clear
8:15 AM 30.9 °F 27.5 °F 28.0 °F 89% 30.15 in 7.0 mi WNW 3.5 mph - N/A   Clear
8:35 AM 32.4 °F - 30.0 °F 91% 30.16 in 7.0 mi Calm Calm - N/A   Clear
8:55 AM 35.4 °F - 31.8 °F 87% 30.16 in 10.0 mi Calm Calm - N/A   Clear
9:15 AM 38.3 °F - 33.1 °F 81% 30.16 in 10.0 mi Calm Calm - N/A   Clear
9:35 AM 41.9 °F - 35.2 °F 77% 30.16 in 10.0 mi Calm Calm - N/A   Clear
9:55 AM 44.6 °F 42.2 °F 34.9 °F 69% 30.16 in 10.0 mi ESE 4.6 mph - N/A   Clear
10:15 AM 46.9 °F - 34.2 °F 61% 30.17 in 10.0 mi SSE 5.8 mph - N/A   Clear
10:35 AM 50.0 °F - 33.4 °F 53% 30.18 in 10.0 mi South 8.1 mph - N/A   Clear
10:55 AM 51.1 °F - 33.1 °F 50% 30.17 in 10.0 mi South 9.2 mph - N/A   Clear
11:15 AM 52.2 °F - 32.2 °F 47% 30.16 in 10.0 mi South 9.2 mph - N/A   Scattered Clouds
11:35 AM 54.0 °F - 32.0 °F 43% 30.16 in 10.0 mi SSE 11.5 mph 17.3 mph N/A   Clear
11:55 AM 54.5 °F - 31.1 °F 41% 30.16 in 10.0 mi SSE 10.4 mph - N/A   Clear
12:15 PM 55.0 °F - 30.4 °F 39% 30.16 in 10.0 mi SSE 9.2 mph - N/A   Clear
12:35 PM 57.0 °F - 29.8 °F 36% 30.16 in 10.0 mi SSE 13.8 mph - N/A   Clear
12:55 PM 58.3 °F - 28.4 °F 32% 30.14 in 10.0 mi SE 12.7 mph - N/A   Scattered Clouds
1:15 PM 59.2 °F - 26.1 °F 28% 30.14 in 10.0 mi SE 12.7 mph 18.4 mph N/A   Clear
1:35 PM 59.5 °F - 25.3 °F 27% 30.13 in 10.0 mi SSE 13.8 mph 17.3 mph N/A   Clear
1:55 PM 61.0 °F - 21.4 °F 22% 30.13 in 10.0 mi SE 12.7 mph 17.3 mph N/A   Clear
2:15 PM 61.2 °F - 21.7 °F 22% 30.12 in 10.0 mi SE 12.7 mph 17.3 mph N/A   Scattered Clouds
2:35 PM 62.1 °F - 22.8 °F 22% 30.11 in 10.0 mi ESE 11.5 mph - N/A   Scattered Clouds
2:55 PM 62.4 °F - 24.4 °F 24% 30.10 in 10.0 mi SSE 11.5 mph 21.9 mph N/A   Clear
3:15 PM 62.6 °F - 24.1 °F 23% 30.10 in 10.0 mi SSE 9.2 mph 18.4 mph N/A   Clear
3:35 PM 62.8 °F - 22.6 °F 22% 30.10 in 10.0 mi South 10.4 mph - N/A   Clear
3:55 PM 62.6 °F - 23.7 °F 23% 30.09 in 10.0 mi SE 8.1 mph 16.1 mph N/A   Clear
4:15 PM 63.3 °F - 25.2 °F 23% 30.09 in 10.0 mi South 8.1 mph 11.5 mph N/A   Clear
4:35 PM 63.3 °F - 25.7 °F 24% 30.09 in 10.0 mi SSE 9.2 mph 16.1 mph N/A   Clear
4:55 PM 63.7 °F - 24.4 °F 22% 30.09 in 10.0 mi South 6.9 mph 16.1 mph N/A   Clear
5:15 PM 63.3 °F - 26.4 °F 25% 30.08 in 10.0 mi SSE 8.1 mph - N/A   Clear
5:35 PM 63.3 °F - 26.8 °F 25% 30.08 in 10.0 mi South 10.4 mph - N/A   Clear
5:55 PM 63.5 °F - 28.0 °F 26% 30.08 in 10.0 mi SSE 9.2 mph - N/A   Clear
6:15 PM 63.1 °F - 27.7 °F 26% 30.08 in 10.0 mi South 8.1 mph - N/A   Clear
6:35 PM 62.6 °F - 27.3 °F 26% 30.08 in 10.0 mi SE 9.2 mph - N/A   Clear
6:55 PM 62.2 °F - 27.1 °F 26% 30.09 in 10.0 mi South 8.1 mph - N/A   Clear
7:15 PM 61.7 °F - 27.5 °F 27% 30.09 in 10.0 mi SE 6.9 mph - N/A   Clear
7:35 PM 59.0 °F - 27.9 °F 31% 30.09 in 10.0 mi SE 9.2 mph - N/A   Clear
7:55 PM 55.8 °F - 28.0 °F 35% 30.10 in 10.0 mi SE 9.2 mph - N/A   Scattered Clouds
8:15 PM 52.2 °F - 27.9 °F 39% 30.10 in 10.0 mi SE 10.4 mph - N/A   Clear
8:35 PM 49.3 °F - 28.0 °F 44% 30.11 in 10.0 mi SE 11.5 mph - N/A   Clear
8:55 PM 49.5 °F - 27.9 °F 43% 30.11 in 10.0 mi SE 10.4 mph - N/A   Clear
9:15 PM 45.3 °F 40.1 °F 27.7 °F 50% 30.12 in 10.0 mi SE 10.4 mph - N/A   Clear
9:35 PM 44.8 °F 39.4 °F 28.2 °F 52% 30.13 in 10.0 mi SE 10.4 mph - N/A   Clear
9:55 PM 45.0 °F 40.1 °F 28.8 °F 53% 30.13 in 10.0 mi SE 9.2 mph - N/A   Clear
10:15 PM 43.0 °F 37.2 °F 29.1 °F 58% 30.14 in 10.0 mi SE 10.4 mph - N/A   Clear
10:35 PM 45.5 °F 40.3 °F 28.8 °F 52% 30.14 in 10.0 mi SE 10.4 mph - N/A   Clear
10:55 PM 41.7 °F 36.7 °F 28.9 °F 61% 30.14 in 10.0 mi SE 8.1 mph - N/A   Clear
11:15 PM 41.2 °F 36.6 °F 28.4 °F 60% 30.14 in 10.0 mi ESE 6.9 mph - N/A   Clear
11:35 PM 40.3 °F 34.4 °F 28.4 °F 63% 30.14 in 10.0 mi SE 9.2 mph - N/A   Clear
11:55 PM 38.8 °F 34.6 °F 27.3 °F 63% 30.14 in 10.0 mi SE 5.8 mph - N/A   Clear